.
WxDataArchive / Data Records for 2016-01-18
2016-01-17 January 2016 2016-01-19

Data Records for Monday, 18 January 2016

Time	Temp	Chill	HIndex	Humid	Dewpt	 Wind 	HiWind	WindDir	Rain 	Barom
-----	----	-----	------	-----	-----	------	------	-------	-----	-----
00:00	4.1	4.1	4.1	60	-6.7	1	3	270	0.00	30.164 
00:05	4.1	4.1	4.1	60	-6.7	1	4	248	0.00	30.164 
00:10	4.1	4.1	4.1	60	-6.7	1	3	270	0.00	30.164 
00:15	3.9	3.9	3.9	60	-6.8	1	2	270	0.00	30.167 
00:20	3.9	3.9	3.9	60	-6.8	1	4	270	0.00	30.167 
00:25	3.7	3.7	3.7	60	-7.0	1	3	292	0.00	30.167 
00:30	3.7	3.7	3.7	60	-7.0	1	3	270	0.00	30.168 
00:35	3.5	3.5	3.5	61	-6.9	0	4	270	0.00	30.168 
00:40	3.5	3.5	3.5	61	-6.9	1	3	270	0.00	30.168 
00:45	3.5	3.5	3.5	61	-6.9	1	3	270	0.00	30.170 
00:50	3.5	3.5	3.5	61	-6.9	1	3	248	0.00	30.170 
00:55	3.5	3.5	3.5	62	-6.6	1	4	248	0.00	30.170 
01:00	3.4	3.4	3.4	62	-6.7	1	3	248	0.00	30.174 
01:05	3.4	3.4	3.4	62	-6.7	1	3	248	0.00	30.174 
01:10	3.4	3.4	3.4	62	-6.7	1	4	248	0.00	30.174 
01:15	3.4	3.4	3.4	62	-6.7	1	3	248	0.00	30.176 
01:20	3.4	3.4	3.4	62	-6.7	1	4	248	0.00	30.176 
01:25	3.2	3.2	3.2	62	-6.8	1	3	270	0.00	30.176 
01:30	3.2	3.2	3.2	62	-6.8	1	3	270	0.00	30.174 
01:35	3.2	3.2	3.2	62	-6.8	1	3	248	0.00	30.174 
01:40	3.2	3.2	3.2	62	-6.8	2	6	248	0.00	30.174 
01:45	3.2	3.2	3.2	62	-6.8	0	4	248	0.00	30.176 
01:50	3.2	3.2	3.2	62	-6.8	0	3	248	0.00	30.176 
01:55	3.0	3.0	3.0	62	-7.0	1	4	270	0.00	30.176 
02:00	3.0	3.0	3.0	62	-7.0	1	4	270	0.00	30.182 
02:05	3.0	3.0	3.0	62	-7.0	1	4	248	0.00	30.182 
02:10	3.0	3.0	3.0	62	-7.0	2	5	270	0.00	30.182 
02:15	3.0	3.0	3.0	61	-7.4	2	4	248	0.00	30.185 
02:20	3.0	3.0	3.0	61	-7.4	1	6	248	0.00	30.185 
02:25	2.8	2.8	2.8	61	-7.6	1	4	248	0.00	30.185 
02:30	2.8	2.8	2.8	61	-7.6	2	4	292	0.00	30.186 
02:35	2.8	2.8	2.8	61	-7.6	1	3	248	0.00	30.186 
02:40	2.6	2.6	2.6	61	-7.7	2	5	270	0.00	30.186 
02:45	2.6	2.6	2.6	61	-7.7	2	5	270	0.00	30.189 
02:50	2.6	2.6	2.6	61	-7.7	1	4	270	0.00	30.189 
02:55	2.6	2.6	2.6	61	-7.7	2	4	225	0.00	30.189 
03:00	2.6	2.6	2.6	61	-7.7	2	4	292	0.00	30.188 
03:05	2.6	2.6	2.6	61	-7.7	1	5	248	0.00	30.188 
03:10	2.4	2.4	2.4	61	-7.9	1	4	270	0.00	30.188 
03:15	2.4	2.4	2.4	61	-7.9	1	4	248	0.00	30.197 
03:20	2.4	2.4	2.4	60	-8.3	1	4	248	0.00	30.197 
03:25	2.4	2.4	2.4	61	-7.9	2	4	292	0.00	30.197 
03:30	2.4	2.4	2.4	61	-7.9	1	3	248	0.00	30.197 
03:35	2.2	2.2	2.2	61	-8.1	1	3	270	0.00	30.197 
03:40	2.2	2.2	2.2	61	-8.1	1	4	270	0.00	30.197 
03:45	2.2	2.2	2.2	61	-8.1	2	4	270	0.00	30.199 
03:50	2.2	2.2	2.2	61	-8.1	2	5	270	0.00	30.199 
03:55	2.2	2.2	2.2	61	-8.1	1	4	270	0.00	30.199 
04:00	2.0	2.0	2.0	61	-8.3	1	4	270	0.00	30.198 
04:05	2.0	2.0	2.0	62	-8.0	1	3	270	0.00	30.198 
04:10	2.0	2.0	2.0	62	-8.0	1	4	270	0.00	30.198 
04:15	2.0	2.0	2.0	62	-8.0	1	3	248	0.00	30.202 
04:20	1.8	1.8	1.8	62	-8.2	1	3	248	0.00	30.202 
04:25	1.8	1.8	1.8	61	-8.5	1	5	270	0.00	30.202 
04:30	1.8	1.8	1.8	61	-8.5	1	4	248	0.00	30.201 
04:35	1.8	1.8	1.8	61	-8.5	1	4	270	0.00	30.201 
04:40	1.8	1.8	1.8	62	-8.2	1	3	270	0.00	30.201 
04:45	1.7	1.7	1.7	62	-8.3	2	6	270	0.00	30.203 
04:50	1.7	1.7	1.7	62	-8.3	1	4	270	0.00	30.203 
04:55	1.7	1.7	1.7	62	-8.3	1	4	270	0.00	30.203 
05:00	1.7	1.7	1.7	62	-8.3	1	3	270	0.00	30.206 
05:05	1.7	1.7	1.7	62	-8.3	1	4	270	0.00	30.206 
05:10	1.7	1.7	1.7	62	-8.3	1	4	248	0.00	30.206 
05:15	1.7	1.7	1.7	62	-8.3	1	3	270	0.00	30.209 
05:20	1.5	1.5	1.5	62	-8.5	2	4	270	0.00	30.209 
05:25	1.5	1.5	1.5	62	-8.5	1	2	270	0.00	30.209 
05:30	1.5	1.5	1.5	62	-8.5	1	5	292	0.00	30.209 
05:35	1.5	1.5	1.5	62	-8.5	2	4	270	0.00	30.209 
05:40	1.5	1.5	1.5	62	-8.5	2	4	270	0.00	30.209 
05:45	1.5	1.5	1.5	63	-8.1	2	5	292	0.00	30.219 
05:50	1.5	1.5	1.5	63	-8.1	2	5	270	0.00	30.219 
05:55	1.5	1.5	1.5	63	-8.1	1	5	270	0.00	30.219 
06:00	1.3	1.3	1.3	63	-8.3	2	4	248	0.00	30.221 
06:05	1.3	1.3	1.3	63	-8.3	2	5	270	0.00	30.221 
06:10	1.3	1.3	1.3	63	-8.3	1	4	270	0.00	30.221 
06:15	1.3	1.3	1.3	63	-8.3	1	3	270	0.00	30.226 
06:20	1.3	1.3	1.3	63	-8.3	0	2	270	0.00	30.226 
06:25	1.3	1.3	1.3	63	-8.3	0	2	270	0.00	30.226 
06:30	1.1	1.1	1.1	64	-8.2	0	3	270	0.00	30.233 
06:35	1.1	1.1	1.1	64	-8.2	1	4	292	0.00	30.233 
06:40	1.1	1.1	1.1	64	-8.2	1	4	292	0.00	30.233 
06:45	1.1	1.1	1.1	64	-8.2	0	2	270	0.00	30.235 
06:50	1.1	1.1	1.1	64	-8.2	1	4	270	0.00	30.235 
06:55	0.9	0.9	0.9	64	-8.4	0	2	248	0.00	30.235 
07:00	0.9	0.9	0.9	64	-8.4	1	3	248	0.00	30.237 
07:05	0.9	0.9	0.9	64	-8.4	1	2	248	0.00	30.237 
07:10	0.9	0.9	0.9	64	-8.4	1	3	248	0.00	30.237 
07:15	0.9	0.9	0.9	64	-8.4	1	2	248	0.00	30.239 
07:20	0.7	0.7	0.7	64	-8.6	1	3	248	0.00	30.239 
07:25	0.7	0.7	0.7	64	-8.6	1	2	248	0.00	30.239 
07:30	0.7	0.7	0.7	64	-8.6	1	4	248	0.00	30.241 
07:35	0.7	0.7	0.7	64	-8.6	1	4	248	0.00	30.241 
07:40	0.7	0.7	0.7	64	-8.6	1	3	248	0.00	30.241 
07:45	0.7	0.7	0.7	64	-8.6	0	2	248	0.00	30.242 
07:50	0.7	0.7	0.7	64	-8.6	1	3	248	0.00	30.242 
07:55	0.5	0.5	0.5	64	-8.8	1	4	248	0.00	30.242 
08:00	0.5	0.5	0.5	64	-8.8	1	4	270	0.00	30.247 
08:05	0.5	0.5	0.5	65	-8.5	1	5	225	0.00	30.247 
08:10	0.5	0.5	0.5	65	-8.5	1	3	270	0.00	30.247 
08:15	0.5	0.5	0.5	65	-8.5	1	3	248	0.00	30.255 
08:20	0.5	0.5	0.5	65	-8.5	1	3	248	0.00	30.255 
08:25	0.5	0.5	0.5	65	-8.5	1	3	270	0.00	30.255 
08:30	0.7	0.7	0.7	65	-8.3	1	4	248	0.00	30.255 
08:35	0.7	0.7	0.7	65	-8.3	1	4	248	0.00	30.255 
08:40	0.9	0.9	0.9	65	-8.1	2	5	248	0.00	30.255 
08:45	0.9	0.9	0.9	64	-8.4	2	3	270	0.00	30.261 
08:50	1.1	1.1	1.1	64	-8.2	1	3	270	0.00	30.261 
08:55	1.1	1.1	1.1	64	-8.2	1	4	248	0.00	30.261 
09:00	1.3	1.3	1.3	64	-8.0	2	5	248	0.00	30.270 
09:05	1.3	1.3	1.3	64	-8.0	1	5	270	0.00	30.270 
09:10	1.5	1.5	1.5	64	-7.8	1	4	270	0.00	30.270 
09:15	1.7	1.7	1.7	64	-7.6	1	5	248	0.00	30.271 
09:20	1.8	1.8	1.8	64	-7.5	1	3	248	0.00	30.271 
09:25	2.2	2.2	2.2	64	-7.1	1	3	270	0.00	30.271 
09:30	2.4	2.4	2.4	64	-7.0	1	4	248	0.00	30.275 
09:35	2.4	2.4	2.4	63	-7.3	2	6	248	0.00	30.275 
09:40	2.8	2.8	2.8	63	-6.9	1	5	270	0.00	30.275 
09:45	3.0	3.0	3.0	63	-6.7	1	4	248	0.00	30.282 
09:50	3.2	3.2	3.2	63	-6.5	2	4	270	0.00	30.282 
09:55	3.4	3.4	3.4	63	-6.3	2	6	270	0.00	30.282 
10:00	3.7	3.7	3.7	63	-6.0	2	5	248	0.00	30.285 
10:05	3.9	3.9	3.9	63	-5.8	1	3	248	0.00	30.285 
10:10	4.1	4.1	4.1	63	-5.7	2	5	248	0.00	30.285 
10:15	4.3	4.3	4.3	63	-5.5	2	5	248	0.00	30.288 
10:20	4.3	4.3	4.3	63	-5.5	2	4	248	0.00	30.288 
10:25	4.5	4.5	4.5	63	-5.3	2	4	248	0.00	30.288 
10:30	4.5	4.5	4.5	62	-5.6	2	5	270	0.00	30.287 
10:35	4.7	4.7	4.7	62	-5.4	1	7	248	0.00	30.287 
10:40	4.8	4.8	4.8	63	-5.0	1	4	248	0.00	30.287 
10:45	5.2	5.2	5.2	62	-4.9	1	3	248	0.00	30.295 
10:50	5.2	5.2	5.2	62	-4.9	2	6	248	0.00	30.295 
10:55	5.2	5.2	5.2	62	-4.9	1	4	248	0.00	30.295 
11:00	5.6	5.6	5.6	62	-4.6	1	5	248	0.00	30.297 
11:05	5.8	5.8	5.8	62	-4.4	2	5	292	0.00	30.297 
11:10	6.1	6.1	6.1	63	-3.8	1	4	270	0.00	30.297 
11:15	6.5	6.5	6.5	62	-3.7	2	4	270	0.00	30.298 
11:20	6.7	6.7	6.7	62	-3.5	1	5	248	0.00	30.298 
11:25	6.7	6.7	6.7	61	-3.9	2	7	270	0.00	30.298 
11:30	6.9	6.9	6.9	61	-3.7	1	3	270	0.00	30.297 
11:35	7.0	7.0	7.0	60	-3.9	2	5	270	0.00	30.297 
11:40	6.9	6.9	6.9	59	-4.4	2	6	248	0.00	30.297 
11:45	7.0	7.0	7.0	61	-3.6	1	4	248	0.00	30.297 
11:50	7.4	7.4	7.4	62	-2.9	1	3	270	0.00	30.297 
11:55	7.6	7.6	7.6	60	-3.3	1	5	270	0.00	30.297 
12:00	7.6	7.6	7.6	60	-3.3	1	4	270	0.00	30.290 
12:05	7.6	7.6	7.6	59	-3.7	1	4	248	0.00	30.290 
12:10	7.7	7.7	7.7	58	-4.0	1	5	270	0.00	30.290 
12:15	7.7	7.7	7.7	58	-4.0	2	5	270	0.00	30.287 
12:20	7.7	7.7	7.7	58	-4.0	2	4	292	0.00	30.287 
12:25	8.1	8.1	8.1	58	-3.6	2	5	292	0.00	30.287 
12:30	8.4	8.4	8.4	59	-2.9	1	5	248	0.00	30.282 
12:35	8.8	8.8	8.8	59	-2.6	1	5	248	0.00	30.282 
12:40	8.8	8.8	8.8	56	-3.7	3	6	270	0.00	30.282 
12:45	8.4	8.4	8.4	57	-3.7	2	5	270	0.00	30.281 
12:50	8.6	8.6	8.6	57	-3.5	2	5	248	0.00	30.281 
12:55	8.6	8.6	8.6	57	-3.5	3	5	270	0.00	30.281 
13:00	8.6	8.6	8.6	56	-3.8	2	5	270	0.00	30.280 
13:05	8.6	8.6	8.6	55	-4.2	3	5	292	0.00	30.280 
13:10	8.4	8.4	8.4	55	-4.4	3	6	292	0.00	30.280 
13:15	8.6	8.6	8.6	56	-3.8	1	4	292	0.00	30.273 
13:20	9.0	9.0	9.0	56	-3.5	2	5	248	0.00	30.273 
13:25	9.0	9.0	9.0	56	-3.5	2	4	292	0.00	30.273 
13:30	9.3	9.3	9.3	56	-3.2	1	4	270	0.00	30.272 
13:35	9.5	9.5	9.5	55	-3.4	3	5	270	0.00	30.272 
13:40	9.7	9.7	9.7	55	-3.2	2	5	270	0.00	30.272 
13:45	9.7	9.7	9.7	55	-3.2	1	3	270	0.00	30.271 
13:50	10.0	10.0	10.0	56	-2.5	1	4	270	0.00	30.271 
13:55	10.4	10.4	10.4	55	-2.5	1	4	270	0.00	30.271 
14:00	10.2	10.2	10.2	54	-3.1	2	5	248	0.00	30.271 
14:05	10.2	10.2	10.2	55	-2.7	1	4	292	0.00	30.271 
14:10	10.7	10.7	10.7	55	-2.2	1	3	292	0.00	30.271 
14:15	10.5	10.5	10.5	54	-2.8	2	4	292	0.00	30.263 
14:20	10.5	10.5	10.5	54	-2.8	2	5	248	0.00	30.263 
14:25	10.5	10.5	10.5	54	-2.8	2	5	248	0.00	30.263 
14:30	10.5	10.5	10.5	54	-2.8	1	5	270	0.00	30.265 
14:35	10.9	10.9	10.9	54	-2.4	1	4	270	0.00	30.265 
14:40	10.7	10.7	10.7	52	-3.4	2	5	270	0.00	30.265 
14:45	10.9	10.9	10.9	53	-2.8	1	4	292	0.00	30.262 
14:50	11.1	11.1	11.1	53	-2.6	1	4	270	0.00	30.262 
14:55	11.1	11.1	11.1	52	-3.0	1	4	248	0.00	30.262 
15:00	11.1	11.1	11.1	51	-3.5	2	4	270	0.00	30.264 
15:05	10.9	10.9	10.9	52	-3.2	2	5	292	0.00	30.264 
15:10	11.1	11.1	11.1	52	-3.0	1	4	270	0.00	30.264 
15:15	10.9	10.9	10.9	53	-2.8	2	7	248	0.00	30.270 
15:20	10.9	10.9	10.9	53	-2.8	2	5	248	0.00	30.270 
15:25	10.9	10.9	10.9	53	-2.8	2	4	270	0.00	30.270 
15:30	11.2	11.2	11.2	53	-2.6	2	4	270	0.00	30.270 
15:35	11.2	11.2	11.2	52	-3.0	2	5	270	0.00	30.270 
15:40	11.1	11.1	11.1	52	-3.0	1	5	270	0.00	30.270 
15:45	10.9	10.9	10.9	52	-3.2	2	4	248	0.00	30.275 
15:50	10.9	10.9	10.9	52	-3.2	2	4	270	0.00	30.275 
15:55	10.5	10.5	10.5	53	-3.2	1	3	270	0.00	30.275 
16:00	10.4	10.4	10.4	53	-3.3	2	5	292	0.00	30.279 
16:05	10.5	10.5	10.5	53	-3.2	1	4	270	0.00	30.279 
16:10	10.7	10.7	10.7	54	-2.6	1	4	248	0.00	30.279 
16:15	10.5	10.5	10.5	54	-2.8	0	2	248	0.00	30.279 
16:20	10.5	10.5	10.5	54	-2.8	2	5	270	0.00	30.279 
16:25	10.4	10.4	10.4	54	-2.9	1	4	270	0.00	30.279 
16:30	10.4	10.4	10.4	55	-2.5	1	4	270	0.00	30.282 
16:35	10.4	10.4	10.4	55	-2.5	1	3	270	0.00	30.282 
16:40	10.4	10.4	10.4	54	-2.9	1	3	270	0.00	30.282 
16:45	10.2	10.2	10.2	54	-3.1	1	3	270	0.00	30.281 
16:50	10.2	10.2	10.2	55	-2.7	1	3	270	0.00	30.281 
16:55	10.2	10.2	10.2	55	-2.7	1	4	270	0.00	30.281 
17:00	10.0	10.0	10.0	55	-2.9	1	3	270	0.00	30.283 
17:05	10.2	10.2	10.2	56	-2.3	0	3	270	0.00	30.283 
17:10	10.0	10.0	10.0	56	-2.5	1	3	225	0.00	30.283 
17:15	9.9	9.9	9.9	55	-3.0	1	4	225	0.00	30.283 
17:20	9.7	9.7	9.7	55	-3.2	0	2	225	0.00	30.283 
17:25	9.3	9.3	9.3	56	-3.2	1	2	225	0.00	30.283 
17:30	9.2	9.2	9.2	57	-2.9	1	3	225	0.00	30.288 
17:35	9.2	9.2	9.2	57	-2.9	1	3	248	0.00	30.288 
17:40	9.0	9.0	9.0	57	-3.1	0	3	248	0.00	30.288 
17:45	8.8	8.8	8.8	58	-2.9	1	5	248	0.00	30.288 
17:50	8.8	8.8	8.8	58	-2.9	1	3	248	0.00	30.288 
17:55	8.6	8.6	8.6	58	-3.1	0	2	225	0.00	30.288 
18:00	8.4	8.4	8.4	58	-3.3	1	4	248	0.00	30.296 
18:05	8.4	8.4	8.4	58	-3.3	0	2	248	0.00	30.296 
18:10	8.3	8.3	8.3	58	-3.4	0	3	248	0.00	30.296 
18:15	8.3	8.3	8.3	57	-3.8	1	3	248	0.00	30.298 
18:20	8.3	8.3	8.3	57	-3.8	0	3	248	0.00	30.298 
18:25	8.3	8.3	8.3	57	-3.8	0	2	248	0.00	30.298 
18:30	8.1	8.1	8.1	57	-3.9	0	1	248	0.00	30.301 
18:35	8.1	8.1	8.1	57	-3.9	0	1	248	0.00	30.301 
18:40	8.1	8.1	8.1	58	-3.6	0	3	248	0.00	30.301 
18:45	7.9	7.9	7.9	58	-3.8	0	1	248	0.00	30.306 
18:50	7.9	7.9	7.9	58	-3.8	0	2	248	0.00	30.306 
18:55	7.9	7.9	7.9	58	-3.8	1	2	248	0.00	30.306 
19:00	7.9	7.9	7.9	57	-4.1	0	3	248	0.00	30.312 
19:05	7.7	7.7	7.7	57	-4.3	0	3	248	0.00	30.312 
19:10	7.7	7.7	7.7	57	-4.3	1	3	248	0.00	30.312 
19:15	7.7	7.7	7.7	57	-4.3	1	3	248	0.00	30.316 
19:20	7.7	7.7	7.7	57	-4.3	0	4	248	0.00	30.316 
19:25	7.7	7.7	7.7	57	-4.3	0	2	248	0.00	30.316 
19:30	7.7	7.7	7.7	57	-4.3	0	2	248	0.00	30.318 
19:35	7.7	7.7	7.7	57	-4.3	1	3	248	0.00	30.318 
19:40	7.7	7.7	7.7	57	-4.3	0	2	248	0.00	30.318 
19:45	7.6	7.6	7.6	57	-4.4	0	2	248	0.00	30.328 
19:50	7.6	7.6	7.6	57	-4.4	0	2	248	0.00	30.328 
19:55	7.6	7.6	7.6	58	-4.1	0	3	248	0.00	30.328 
20:00	7.6	7.6	7.6	58	-4.1	0	2	248	0.00	30.330 
20:05	7.6	7.6	7.6	58	-4.1	1	2	248	0.00	30.330 
20:10	7.6	7.6	7.6	59	-3.7	0	2	248	0.00	30.330 
20:15	7.4	7.4	7.4	59	-3.9	0	2	248	0.00	30.331 
20:20	7.4	7.4	7.4	59	-3.9	0	1	248	0.00	30.331 
20:25	7.4	7.4	7.4	60	-3.5	0	2	248	0.00	30.331 
20:30	7.4	7.4	7.4	60	-3.5	0	2	248	0.00	30.332 
20:35	7.4	7.4	7.4	60	-3.5	0	2	248	0.00	30.332 
20:40	7.4	7.4	7.4	60	-3.5	0	1	248	0.00	30.332 
20:45	7.2	7.2	7.2	60	-3.7	0	1	248	0.00	30.336 
20:50	7.2	7.2	7.2	61	-3.4	0	2	248	0.00	30.336 
20:55	7.2	7.2	7.2	61	-3.4	0	2	248	0.00	30.336 
21:00	7.2	7.2	7.2	61	-3.4	0	2	248	0.00	30.344 
21:05	7.2	7.2	7.2	61	-3.4	0	2	248	0.00	30.344 
21:10	7.0	7.0	7.0	62	-3.2	0	2	248	0.00	30.344 
21:15	7.0	7.0	7.0	62	-3.2	0	2	248	0.00	30.345 
21:20	7.0	7.0	7.0	62	-3.2	0	2	248	0.00	30.345 
21:25	7.0	7.0	7.0	62	-3.2	0	1	248	0.00	30.345 
21:30	7.0	7.0	7.0	62	-3.2	0	2	248	0.00	30.348 
21:35	7.0	7.0	7.0	62	-3.2	1	3	248	0.00	30.348 
21:40	7.0	7.0	7.0	63	-2.9	1	2	248	0.00	30.348 
21:45	7.0	7.0	7.0	63	-2.9	0	2	248	0.00	30.348 
21:50	7.0	7.0	7.0	63	-2.9	1	4	292	0.00	30.348 
21:55	7.0	7.0	7.0	63	-2.9	1	3	292	0.00	30.348 
22:00	7.0	7.0	7.0	63	-2.9	1	3	292	0.00	30.348 
22:05	7.0	7.0	7.0	63	-2.9	1	3	292	0.00	30.348 
22:10	7.0	7.0	7.0	62	-3.2	2	4	270	0.00	30.348 
22:15	7.0	7.0	7.0	62	-3.2	1	3	270	0.00	30.352 
22:20	6.9	6.9	6.9	62	-3.3	1	4	248	0.00	30.352 
22:25	6.9	6.9	6.9	62	-3.3	1	3	248	0.00	30.352 
22:30	6.7	6.7	6.7	62	-3.5	1	4	248	0.00	30.357 
22:35	6.7	6.7	6.7	62	-3.5	1	4	270	0.00	30.357 
22:40	6.7	6.7	6.7	61	-3.9	2	4	270	0.00	30.357 
22:45	6.5	6.5	6.5	61	-4.0	1	2	270	0.00	30.358 
22:50	6.5	6.5	6.5	62	-3.7	2	4	270	0.00	30.358 
22:55	6.5	6.5	6.5	62	-3.7	1	2	270	0.00	30.358 
23:00	6.5	6.5	6.5	62	-3.7	1	3	270	0.00	30.356 
23:05	6.3	6.3	6.3	62	-3.9	1	4	292	0.00	30.356 
23:10	6.3	6.3	6.3	62	-3.9	1	4	292	0.00	30.356 
23:15	6.3	6.3	6.3	62	-3.9	1	3	292	0.00	30.354 
23:20	6.1	6.1	6.1	62	-4.1	1	3	270	0.00	30.354 
23:25	6.1	6.1	6.1	62	-4.1	1	4	270	0.00	30.354 
23:30	6.1	6.1	6.1	62	-4.1	0	2	292	0.00	30.357 
23:35	6.1	6.1	6.1	63	-3.8	0	2	292	0.00	30.357 
23:40	6.0	6.0	6.0	63	-3.8	0	3	292	0.00	30.357 
23:45	6.0	6.0	6.0	63	-3.8	1	3	292	0.00	30.356 
23:50	6.0	6.0	6.0	63	-3.8	1	3	292	0.00	30.356 
23:55	6.0	6.0	6.0	62	-4.2	1	3	292	0.00	30.356 

CoCoRaHS
IN-AL-39
A2 Web Hosting
Creative Commons License
GoDaddy
search engine by freefind advanced

loaded 2018-11-15 04:01:27 • last modified 2010-11-18 10:43:29
Privacy PolicyDisclaimer
• wx.awcolley.com is powered by PmWiki v.2002016 •
• all content (unless otherwise noted) © 2018 A W Colley